Regional Weather Roundup
Issued by NWS

Home | Current Version | Previous Version | Graphics & Text | Print | Product List | Glossary On
Versions: 1 2 3 4 5 6 7 8 9 10 11 12 13 14 15 16 17 18 19 20 21 22 23 24 25 26 27 28 29 30 31 32 33 34 35 36 37 38 39 40 41 42 43 44 45 46 47 48 49 50
486
ASUS45 KCYS 271610
RWRWY

WYOMING REGIONAL WEATHER ROUNDUP
NATIONAL WEATHER SERVICE CHEYENNE WY
1000 AM MDT WED JUL 27 2016

NOTE:  "FAIR" INDICATES FEW OR NO CLOUDS BELOW 12,000 FEET
WITH NO SIGNIFICANT WEATHER AND/OR OBSTRUCTIONS TO VISIBILITY.

WYZ001-271700-
YELLOWSTONE NATIONAL PARK

CITY           SKY/WX    TMP DP  RH WIND       PRES   REMARKS
LK YELLOWSTONE   N/A     58  45  62 SE5       30.42R
W YELLOWSTONE  NOT AVBL

$$
WYZ002>013-054>058-071-098>099-271700-
NORTHERN WYOMING

CITY           SKY/WX    TMP DP  RH WIND       PRES   REMARKS
JACKSON        SUNNY     64  36  34 CALM      30.32F
CODY           FAIR      73  46  38 NE6       30.21S
GREYBULL       FAIR      76  47  35 VRB3      30.14S
WORLAND        FAIR      74  48  39 NW3       30.16S
SHERIDAN       FAIR      79  54  41 NW5       30.15R
BUFFALO        FAIR      76  54  46 SE9       30.19F
GILLETTE       FAIR      79  52  38 S13       30.16S
HULETT         FAIR      73  54  49 CALM      30.19S
NEWCASTLE      FAIR      68  55  64 SW8       30.18S

$$
WYZ014>020-022>026-101>103-271700-
CENTRAL WYOMING

CITY           SKY/WX    TMP DP  RH WIND       PRES   REMARKS
BIG PINEY      PTSUNNY   66  33  29 SW3       30.34S
PINEDALE       FAIR      66  34  30 NW3       30.35S
DUBOIS           N/A     66  34  30 CALM      30.34F HAZE
LANDER         FAIR      75  46  35 N7        30.23S
RIVERTON       FAIR      73  47  39 CALM      30.24S
CASPER         FAIR      73  53  49 SW5       30.20F
DOUGLAS          N/A    N/A N/A N/A MISG      30.21F

$$
WYZ021-027>030-104>119-271700-
SOUTHERN WYOMING

CITY           SKY/WX    TMP DP  RH WIND       PRES   REMARKS
EVANSTON       FAIR      75  28  17 SW10      30.35R
KEMMERER         N/A     75  27  16 W7        30.36S
FORT BRIDGER   SUNNY     82  23  11 W10       30.36R
ROCK SPRINGS   FAIR      73  28  18 W3        30.32S
DIXON          FAIR      74  39  28 CALM      30.32S
RAWLINS        FAIR      73  37  27 CALM      30.31R
SARATOGA       FAIR      75  37  25 E6        30.31F
LARAMIE        FAIR      73  37  27 S8        30.32F
CHEYENNE       FAIR      70  53  54 N10G17    30.27F
TORRINGTON     FAIR      73  57  57 VRB6      30.17S
PINE BLUFFS    FAIR      70  55  60 SE5       30.22S

$$




USA.gov is the U.S. government's official web portal to all federal, state and local government web resources and services.